This is the latest recevied weather packets stored in our database for station/object EFOU. If no packets are shown the sender has not sent any weather packets the latest 10 day(s).
| Time | Temp. | Humidity | Pressure | Rain* | Wind** | Luminosity | Snow |
|---|---|---|---|---|---|---|---|
| 1778208446 | 2.22° C | 95% | 1021.3 hPa | - | - | - | - |
| 1778207246 | 1.67° C | 94% | 1021.1 hPa | - | - | - | - |
| 1778206046 | 1.11° C | 93% | 1020.9 hPa | - | - | - | - |
| 1778204846 | 1.67° C | 94% | 1020.6 hPa | - | - | - | - |
| 1778203646 | 1.11° C | 93% | 1020.5 hPa | - | - | - | - |
| 1778202446 | 1.67° C | 91% | 1020.4 hPa | - | - | - | - |
| 1778201246 | 1.11° C | 90% | 1020.2 hPa | - | - | - | - |
| 1778200046 | 1.11° C | 88% | 1020.1 hPa | - | - | - | - |
| 1778198845 | 0.56° C | 90% | 1020.1 hPa | - | - | - | - |
| 1778197646 | 0° C | 88% | 1020 hPa | - | - | - | - |
| 1778196445 | 1.11° C | 87% | 1019.9 hPa | - | - | - | - |
| 1778195246 | 1.11° C | 88% | 1019.5 hPa | - | - | - | - |
| 1778194045 | 1.11° C | 90% | 1019.4 hPa | - | - | - | - |
| 1778192845 | 0.56° C | 87% | 1019.1 hPa | - | - | - | - |
| 1778191645 | 0.56° C | 88% | 1019.1 hPa | - | - | - | - |
| 1778190445 | 1.11° C | 90% | 1018.8 hPa | - | - | - | - |
| 1778189245 | 0.56° C | 88% | 1018.6 hPa | - | - | - | - |
| 1778188045 | 0.56° C | 90% | 1018.4 hPa | - | - | - | - |
| 1778186845 | 2.22° C | 81% | 1018 hPa | - | - | - | - |
| 1778185645 | 1.67° C | 79% | 1018.1 hPa | - | - | - | - |
| 1778184445 | 2.22° C | 79% | 1017.9 hPa | - | - | - | - |
| 1778183245 | 2.78° C | 79% | 1017.8 hPa | - | - | - | - |
| 1778182045 | 3.89° C | 75% | 1017.6 hPa | - | - | - | - |
| 1778180844 | 4.44° C | 72% | 1017.5 hPa | - | - | - | - |
| 1778179645 | 5° C | 69% | 1017.4 hPa | - | - | - | - |
* Rain since midnight (hover to see other rain measurements)
** Current wind speed in m/s (hover to see current wind gust speed)